Voltar ao catálogo

STARLINK-1582

AtivoComunicaçõesVLEO
NORAD 46043·PAYLOAD·🇺🇸 United States

Lançado Aug 7, 2020 de Cape Canaveral Space Force Station

Loading…

Próximas Passagens (próximas 24 horas)

TLE

AtualizadoSource: CelesTrak SupGP

Época: Sep 15, 2026, 01:21 UTC

1 46043C 20055S   26258.05673611  .00046957  00000+0  15101-2 0  2589
2 46043  53.1576 325.4471 0001097  80.3467  93.9459 15.31677451    17

Acompanhe STARLINK-1582 em tempo real com AllMySat

Download on the App Store